Location: La Tine
(46.4708°N, 7.0525°E)
Time: 06:47:08
(UTC+00:00)

Cosmos 1627 Rocket - Pass Details

Date: 18 September 2020
Orbit: 951 x 1003 km, 82.9° (Epoch: 23 October)

Event Time Altitude Azimuth Distance (km) Brightness Sun altitude
Rises 19:42:45 0° 353° (N) 3,731 8.0 -21.7°
Reaches altitude 10° 19:45:19 10° 356° (N) 2,782 7.3 -22.1°
Maximum altitude 19:51:41 66° 79° (E) 1,094 4.5 -23.0°
Enters shadow 19:53:35 45° 141° (SE) 1,334 4.8 -23.3°
